Location: Newark
(36.0797°N, 3.9744°E)
Time: 01:20:59
(UTC+00:00)

Vanguard 1 - Visible Passes

Search period start: 22 January 2021 00:00
Search period end: 01 February 2021 00:00
Orbit: 648 x 3834 km, 34.3° (Epoch: 21 January)

Date Brightness Start Highest point End Pass type
(mag) Time Alt. Az. Time Alt. Az. Time Alt. Az.
22 Jan 12.9 18:39:40 10° WNW 19:01:43 59° SSW 19:15:19 12° SE visible
22 Jan 13.2 21:10:53 10° W 21:22:53 21° SW 21:28:06 17° SSW visible
23 Jan 13.0 19:01:31 10° WNW 19:22:29 50° SW 19:35:52 11° SSE visible
23 Jan 13.5 21:35:26 10° W 21:42:54 14° WSW 21:48:39 10° SSW visible
24 Jan 13.1 16:55:10 10° W 17:18:55 75° SSW 17:36:49 10° ESE visible
24 Jan 13.2 19:23:33 10° WNW 19:43:02 41° SW 19:56:03 10° SSE visible
25 Jan 13.2 17:16:47 10° WNW 17:40:13 68° SSW 17:57:35 10° SE visible
25 Jan 13.4 19:45:55 10° W 20:03:24 32° SW 20:15:35 10° S visible
26 Jan 13.3 17:38:26 10° WNW 18:01:19 60° SSW 18:18:08 10° SE visible
26 Jan 13.5 20:08:52 10° W 20:23:38 24° SW 20:34:32 10° S visible
27 Jan 13.4 18:00:10 10° WNW 18:22:12 51° SW 18:38:25 10° SSE visible
27 Jan 13.7 20:33:01 10° W 20:43:45 17° SW 20:52:24 10° SSW visible
28 Jan 13.6 18:22:06 10° WNW 18:42:54 43° SW 18:58:23 10° SSE visible
28 Jan 14.0 21:02:00 10° WSW 21:03:51 10° WSW 21:05:38 10° SW visible
29 Jan 13.7 18:44:22 10° W 19:03:24 34° SW 19:17:57 10° SSE visible
30 Jan 13.8 19:07:10 10° W 19:23:46 26° SW 19:36:56 10° S visible
31 Jan 13.8 16:59:33 10° WNW 17:21:21 52° SW 17:40:04 10° SE visible
31 Jan 14.0 19:31:02 10° W 19:44:04 19° SW 19:54:57 10° SSW visible
